EW1423 Weather Reports


time (UTC)temp
C
wind
direction
speed
KPH
gust
KPH
rain 1hr
cm
rain 24hr
cm
rain mn
cm
humidity
%
barometer
mb
20260903112803 26 247 0.0 3.2 0.00 0.00 0.00 52 1021.9
20260903112305 25 278 0.0 1.6 0.00 0.00 0.00 50 1021.9
20260903111803 26 261 0.0 3.2 0.00 0.00 0.00 51 1022.0
20260903111304 26 267 0.0 4.8 0.00 0.00 0.00 54 1022.0
20260903110804 26 247 0.0 1.6 0.00 0.00 0.00 52 1022.3
20260903110303 26 311 3.2 4.8 0.00 0.00 0.00 50 1022.3
20260903105803 26 247 0.0 3.2 0.00 0.00 0.00 52 1022.3
20260903105306 26 342 0.0 0.0 0.00 0.00 0.00 51 1022.3
20260903104806 26 275 0.0 4.8 0.00 0.00 0.00 52 1022.3
20260903104303 26 174 0.0 4.8 0.00 0.00 0.00 54 1022.4
20260903103803 26 35 0.0 1.6 0.00 0.00 0.00 52 1022.6
20260903103304 25 331 0.0 4.8 0.00 0.00 0.00 54 1022.6
20260903102804 25 319 0.0 0.0 0.00 0.00 0.00 54 1022.6
20260903102305 25 319 0.0 0.0 0.00 0.00 0.00 55 1022.6
20260903101804 25 327 0.0 1.6 0.00 0.00 0.00 55 1022.6
20260903101303 25 271 0.0 1.6 0.00 0.00 0.00 55 1022.7
20260903100305 25 244 1.6 4.8 0.00 0.00 0.00 55 1022.7
20260903095804 25 297 1.6 8.0 0.00 0.00 0.00 53 1022.7
20260903095305 25 260 1.6 8.0 0.00 0.00 0.00 53 1022.7
20260903094803 25 264 1.6 8.0 0.00 0.00 0.00 52 1022.7
20260903094303 25 297 1.6 8.0 0.00 0.00 0.00 54 1022.7
20260903093804 25 250 0.0 8.0 0.00 0.00 0.00 56 1023.1
20260903093304 25 313 1.6 9.7 0.00 0.00 0.00 54 1023.1
20260903092803 24 313 1.6 8.0 0.00 0.00 0.00 56 1023.1
20260903091304 23 296 1.6 8.0 0.00 0.00 0.00 57 1023.1
20260903090804 23 130 0.0 0.0 0.00 0.00 0.00 64 1023.1
20260903090303 22 17 1.6 8.0 0.00 0.00 0.00 64 1023.1
20260903085306 22 35 0.0 4.8 0.00 0.00 0.00 66 1022.9
20260903084804 22 64 1.6 4.8 0.00 0.00 0.00 69 1022.9
20260903084304 21 78 0.0 0.0 0.00 0.00 0.00 70 1022.9
20260903083803 21 78 1.6 4.8 0.00 0.00 0.00 71 1022.9
20260903083303 21 107 0.0 4.8 0.00 0.00 0.00 73 1022.8
20260903082803 21 61 1.6 4.8 0.00 0.00 0.00 73 1023.0
20260903082306 20 53 0.0 0.0 0.00 0.00 0.00 74 1023.0
20260903081803 20 53 0.0 0.0 0.00 0.00 0.00 74 1023.4
20260903081304 20 53 0.0 0.0 0.00 0.00 0.00 75 1023.4
20260903080804 19 53 0.0 0.0 0.00 0.00 0.00 78 1023.4
20260903080303 19 53 0.0 0.0 0.00 0.00 0.00 79 1023.4
20260903075804 19 26 0.0 3.2 0.00 0.00 0.00 79 1023.4
20260903075306 18 135 0.0 0.0 0.00 0.00 0.00 80 1023.4
20260903073803 18 74 0.0 0.0 0.00 0.00 0.00 80 1023.4
20260903073303 18 164 0.0 1.6 0.00 0.00 0.00 81 1023.4
20260903072803 17 130 0.0 0.0 0.00 0.00 0.00 82 1023.4
20260903072306 17 101 0.0 1.6 0.00 0.00 0.00 84 1023.4
20260903071804 17 52 0.0 3.2 0.00 0.00 0.00 84 1023.4
20260903071303 17 121 0.0 0.0 0.00 0.00 0.00 85 1023.4
20260903070804 16 121 0.0 0.0 0.00 0.00 0.00 85 1023.2
20260903065804 16 88 0.0 1.6 0.00 0.00 0.00 86 1023.2
20260903065306 16 99 0.0 0.0 0.00 0.00 0.00 87 1023.2
20260903063804 15 107 0.0 1.6 0.00 0.00 0.00 92 1023.4
20260903063304 14 107 0.0 3.2 0.00 0.00 0.00 94 1023.4
20260903062804 13 186 0.0 1.6 0.00 0.00 0.00 95 1023.3
20260903062306 13 186 0.0 3.2 0.00 0.00 0.00 97 1023.2
20260903061804 13 186 0.0 1.6 0.00 0.00 0.00 98 1023.2
20260903061303 13 226 0.0 3.2 0.00 0.00 0.00 100 1023.2
20260903060804 12 227 0.0 0.0 0.00 0.00 0.00 100 1023.3
20260903060304 12 227 0.0 0.0 0.00 0.00 0.00 100 1023.3
20260903055805 12 227 0.0 1.6 0.00 0.00 0.00 100 1023.3
20260903055306 12 227 0.0 0.0 0.00 0.00 0.00 100 1023.3
20260903054803 12 227 0.0 0.0 0.00 0.00 0.00 100 1023.3
20260903054304 11 227 0.0 0.0 0.00 0.00 0.00 100 1023.3
20260903053803 11 341 0.0 0.0 0.00 0.00 0.00 100 1023.3
20260903052306 11 341 0.0 0.0 0.00 0.00 0.00 100 1023.0
20260903050303 11 341 0.0 0.0 0.00 0.00 0.00 100 1022.5
20260903045804 11 341 0.0 0.0 0.00 0.00 0.00 100 1022.5
20260903045306 11 341 0.0 0.0 0.00 0.00 0.00 100 1022.5
20260903044803 11 341 0.0 0.0 0.00 0.00 0.00 100 1022.5
20260903043804 11 341 0.0 0.0 0.00 0.00 0.00 100 1022.5
20260903043304 11 341 0.0 0.0 0.00 0.00 0.00 100 1022.5
20260903042306 11 341 0.0 0.0 0.00 0.00 0.00 100 1022.5
20260903041803 11 341 0.0 0.0 0.00 0.00 0.00 100 1022.7
20260903041304 11 341 0.0 0.0 0.00 0.00 0.00 100 1022.7
20260903040804 11 341 0.0 0.0 0.00 0.00 0.00 100 1022.9
20260903040303 11 341 0.0 0.0 0.00 0.00 0.00 100 1022.9
20260903035804 11 341 0.0 0.0 0.00 0.00 0.00 100 1022.9
20260903034804 11 341 0.0 0.0 0.00 0.00 0.00 100 1022.8
20260903034304 11 341 0.0 0.0 0.00 0.00 0.00 100 1022.9
20260903033804 11 341 0.0 0.0 0.00 0.00 0.00 100 1022.9
20260903033304 11 341 0.0 0.0 0.00 0.00 0.00 100 1022.9
20260903032804 11 341 0.0 0.0 0.00 0.00 0.00 100 1022.9
20260903031804 11 341 0.0 0.0 0.00 0.00 0.00 100 1022.9
20260903031304 11 341 0.0 0.0 0.00 0.00 0.00 100 1022.9
20260903030804 11 341 0.0 0.0 0.00 0.00 0.00 100 1022.8
20260903030303 12 341 0.0 0.0 0.00 0.00 0.00 100 1022.8
20260903025803 12 341 0.0 0.0 0.00 0.00 0.00 100 1022.8
20260903023804 11 341 0.0 0.0 0.00 0.00 0.00 100 1022.8
20260903023303 11 341 0.0 0.0 0.00 0.00 0.00 100 1022.8
20260903022803 11 341 0.0 0.0 0.00 0.00 0.00 100 1022.8
20260903022306 11 341 0.0 0.0 0.00 0.00 0.00 100 1022.7
20260903020803 11 341 0.0 0.0 0.00 0.00 0.00 100 1022.7
20260903020303 11 341 0.0 0.0 0.00 0.00 0.00 100 1022.7
20260903015803 12 341 0.0 0.0 0.00 0.00 0.00 100 1022.7
20260903015306 12 341 0.0 0.0 0.00 0.00 0.00 100 1022.7
20260903014304 12 341 0.0 0.0 0.00 0.00 0.00 99 1022.7
20260903013803 12 341 0.0 0.0 0.00 0.00 0.00 99 1022.7
20260903013303 12 341 0.0 0.0 0.00 0.00 0.00 99 1022.7
20260903012803 12 341 0.0 0.0 0.00 0.00 0.00 99 1022.7
20260903012306 12 341 0.0 0.0 0.00 0.00 0.00 99 1022.7
20260903011804 12 341 0.0 0.0 0.00 0.00 0.00 99 1022.7
20260903011304 12 341 0.0 0.0 0.00 0.00 0.00 99 1022.7
20260903010804 12 341 0.0 0.0 0.00 0.00 0.00 98 1022.7
20260903010304 12 341 0.0 0.0 0.00 0.00 0.00 99 1022.6
20260903005804 12 341 0.0 0.0 0.00 0.00 0.00 99 1022.6
20260903005306 12 341 0.0 0.0 0.00 0.00 0.00 98 1022.6
20260903004304 12 341 0.0 0.0 0.00 0.00 0.00 98 1022.6
20260903003804 12 341 0.0 0.0 0.00 0.00 0.00 98 1022.6
20260903003303 12 341 0.0 0.0 0.00 0.00 0.00 98 1022.6
20260903002804 12 341 0.0 0.0 0.00 0.00 0.00 98 1022.6
20260903002306 12 341 0.0 0.0 0.00 0.00 0.00 97 1022.6
20260903000803 12 341 0.0 0.0 0.00 0.00 0.00 97 1022.6
20260902235305 12 341 0.0 0.0 0.00 0.00 0.00 97 1022.6
20260902234803 13 341 0.0 0.0 0.00 0.00 0.00 96 1022.6
20260902233804 13 341 0.0 0.0 0.00 0.00 0.00 96 1022.6
20260902233304 13 341 0.0 0.0 0.00 0.00 0.00 95 1022.5
20260902232803 13 341 0.0 0.0 0.00 0.00 0.00 95 1022.5
20260902232306 13 341 0.0 0.0 0.00 0.00 0.00 95 1022.5
20260902231804 13 341 0.0 0.0 0.00 0.00 0.00 95 1022.5
20260902231303 13 341 0.0 0.0 0.00 0.00 0.00 95 1022.5
20260902230804 13 341 0.0 0.0 0.00 0.00 0.00 95 1022.5
20260902225804 13 341 0.0 0.0 0.00 0.00 0.00 94 1022.5
20260902225306 13 341 0.0 0.0 0.00 0.00 0.00 94 1022.4
20260902224804 13 341 0.0 0.0 0.00 0.00 0.00 94 1022.4
20260902224303 13 341 0.0 0.0 0.00 0.00 0.00 94 1022.4
20260902223804 13 341 0.0 0.0 0.00 0.00 0.00 94 1022.4
20260902223304 13 341 0.0 0.0 0.00 0.00 0.00 93 1022.4
20260902222306 14 341 0.0 0.0 0.00 0.00 0.00 93 1022.3
20260902221804 14 341 0.0 0.0 0.00 0.00 0.00 93 1022.3
20260902221303 14 341 0.0 0.0 0.00 0.00 0.00 93 1022.2
20260902220809 14 341 0.0 0.0 0.00 0.00 0.00 92 1022.2
20260902215803 14 341 0.0 0.0 0.00 0.00 0.00 91 1022.2
20260902215306 14 341 0.0 0.0 0.00 0.00 0.00 91 1022.2
20260902214803 15 341 0.0 0.0 0.00 0.00 0.00 91 1022.2
20260902214304 15 341 0.0 0.0 0.00 0.00 0.00 90 1022.2
20260902212803 15 341 0.0 0.0 0.00 0.00 0.00 90 1022.1
20260902211804 15 341 0.0 0.0 0.00 0.00 0.00 89 1022.1
20260902210804 15 341 0.0 0.0 0.00 0.00 0.00 89 1022.0
20260902210303 15 341 0.0 0.0 0.00 0.00 0.00 89 1022.0
20260902205804 15 341 0.0 0.0 0.00 0.00 0.00 88 1022.0
20260902205306 15 341 0.0 0.0 0.00 0.00 0.00 88 1021.9
20260902204804 15 341 0.0 0.0 0.00 0.00 0.00 88 1021.9
20260902203803 16 341 0.0 0.0 0.00 0.00 0.00 87 1021.9
20260902203304 15 341 0.0 0.0 0.00 0.00 0.00 88 1021.7
20260902202803 15 341 0.0 0.0 0.00 0.00 0.00 87 1021.7
20260902201803 15 341 0.0 0.0 0.00 0.00 0.00 87 1021.7
20260902201304 15 341 0.0 0.0 0.00 0.00 0.00 87 1021.7
20260902200803 16 341 0.0 0.0 0.00 0.00 0.00 87 1021.7
20260902200303 16 341 0.0 0.0 0.00 0.00 0.00 86 1021.7
20260902195804 16 341 0.0 0.0 0.00 0.00 0.00 86 1021.4
20260902195306 16 341 0.0 0.0 0.00 0.00 0.00 86 1021.4
20260902194804 16 341 0.0 0.0 0.00 0.00 0.00 85 1021.4
20260902194303 16 341 0.0 0.0 0.00 0.00 0.00 85 1021.4
20260902193804 16 341 0.0 0.0 0.00 0.00 0.00 85 1021.4
20260902193304 16 341 0.0 0.0 0.00 0.00 0.00 85 1021.4
20260902192804 16 341 0.0 0.0 0.00 0.00 0.00 84 1021.4
20260902192306 17 341 0.0 0.0 0.00 0.00 0.00 84 1021.4
20260902191804 17 341 0.0 0.0 0.00 0.00 0.00 83 1021.4
20260902191304 17 341 0.0 0.0 0.00 0.00 0.00 83 1021.4
20260902190804 17 341 0.0 0.0 0.00 0.00 0.00 82 1021.4
20260902185803 17 341 0.0 0.0 0.00 0.00 0.00 82 1021.2
20260902185306 17 341 0.0 0.0 0.00 0.00 0.00 81 1021.0
20260902184803 17 341 0.0 0.0 0.00 0.00 0.00 81 1021.0
20260902184304 17 341 0.0 0.0 0.00 0.00 0.00 80 1020.8
20260902183803 17 341 0.0 0.0 0.00 0.00 0.00 80 1020.8
20260902182803 18 341 0.0 0.0 0.00 0.00 0.00 79 1020.8
20260902182306 18 341 0.0 0.0 0.00 0.00 0.00 78 1020.8
20260902181803 18 341 0.0 0.0 0.00 0.00 0.00 76 1020.8
20260902180804 19 341 0.0 0.0 0.00 0.00 0.00 74 1020.6
20260902180304 20 341 0.0 0.0 0.00 0.00 0.00 74 1020.6
20260902175803 20 341 0.0 0.0 0.00 0.00 0.00 71 1020.6
20260902175307 20 341 0.0 0.0 0.00 0.00 0.00 71 1020.3
20260902174803 21 341 0.0 0.0 0.00 0.00 0.00 69 1020.3
20260902174303 21 341 0.0 0.0 0.00 0.00 0.00 68 1020.3
20260902173303 21 341 0.0 0.0 0.00 0.00 0.00 64 1020.3
20260902172804 22 341 0.0 3.2 0.00 0.00 0.00 64 1020.3
20260902172308 22 341 0.0 1.6 0.00 0.00 0.00 62 1020.3
20260902171803 22 341 0.0 3.2 0.00 0.00 0.00 62 1020.3
20260902171303 22 36 0.0 1.6 0.00 0.00 0.00 61 1020.3
20260902170303 22 27 0.0 3.2 0.00 0.00 0.00 59 1020.2
20260902165308 23 299 0.0 0.0 0.00 0.00 0.00 58 1020.2
20260902164804 23 336 1.6 8.0 0.00 0.00 0.00 57 1020.2
20260902164303 23 256 1.6 3.2 0.00 0.00 0.00 57 1020.2
20260902163803 23 317 1.6 8.0 0.00 0.00 0.00 57 1020.3
20260902163304 23 302 0.0 9.7 0.00 0.00 0.00 56 1020.3
20260902162804 24 262 0.0 4.8 0.00 0.00 0.00 55 1020.3
20260902162307 24 302 0.0 8.0 0.00 0.00 0.00 54 1020.2
20260902161804 25 321 1.6 8.0 0.00 0.00 0.00 53 1020.2
20260902161304 25 293 0.0 1.6 0.00 0.00 0.00 54 1020.2
20260902160803 25 297 0.0 8.0 0.00 0.00 0.00 54 1020.2
20260902160303 25 257 1.6 8.0 0.00 0.00 0.00 53 1020.1
20260902155804 25 264 0.0 14.5 0.00 0.00 0.00 54 1020.1
20260902154803 25 276 0.0 0.0 0.00 0.00 0.00 53 1020.1
20260902154304 25 272 0.0 1.6 0.00 0.00 0.00 55 1020.1
20260902153804 25 238 0.0 1.6 0.00 0.00 0.00 54 1020.1
20260902152307 25 42 1.6 8.0 0.00 0.00 0.00 54 1020.1
20260902150803 25 38 0.0 8.0 0.00 0.00 0.00 52 1020.2
20260902150304 26 302 0.0 1.6 0.00 0.00 0.00 52 1020.2
20260902145803 26 316 0.0 9.7 0.00 0.00 0.00 53 1020.2
20260902145305 26 281 1.6 8.0 0.00 0.00 0.00 52 1020.2
20260902144803 26 298 0.0 3.2 0.00 0.00 0.00 51 1020.2
20260902144304 26 266 1.6 8.0 0.00 0.00 0.00 51 1020.2
20260902143804 27 317 3.2 12.9 0.00 0.00 0.00 50 1020.3
20260902143303 27 3 1.6 4.8 0.00 0.00 0.00 48 1020.3
20260902142306 27 315 0.0 8.0 0.00 0.00 0.00 51 1020.3
20260902141804 27 282 1.6 9.7 0.00 0.00 0.00 49 1020.3
20260902141304 27 287 1.6 8.0 0.00 0.00 0.00 49 1020.3
20260902140804 27 357 1.6 12.9 0.00 0.00 0.00 50 1020.3
20260902140304 27 329 0.0 4.8 0.00 0.00 0.00 50 1020.3
20260902135803 27 288 0.0 3.2 0.00 0.00 0.00 51 1020.3
20260902135306 26 210 1.6 8.0 0.00 0.00 0.00 52 1020.3
20260902134804 26 320 1.6 9.7 0.00 0.00 0.00 53 1020.3
20260902134303 26 298 3.2 11.3 0.00 0.00 0.00 52 1020.3
20260902133803 26 281 0.0 4.8 0.00 0.00 0.00 53 1020.3
20260902133304 26 324 0.0 4.8 0.00 0.00 0.00 52 1020.2
20260902132803 27 336 0.0 4.8 0.00 0.00 0.00 51 1020.2
20260902132306 27 10 0.0 8.0 0.00 0.00 0.00 48 1020.2
20260902131804 27 24 0.0 0.0 0.00 0.00 0.00 50 1020.2
20260902131303 27 0 0.0 3.2 0.00 0.00 0.00 50 1020.3
20260902125804 27 316 1.6 4.8 0.00 0.00 0.00 50 1020.5
20260902125305 26 58 1.6 9.7 0.00 0.00 0.00 50 1020.5
20260902124804 26 275 0.0 3.2 0.00 0.00 0.00 52 1020.5
20260902123803 26 32 1.6 4.8 0.00 0.00 0.00 52 1020.5
20260902123304 26 278 3.2 8.0 0.00 0.00 0.00 52 1020.7
20260902122803 26 345 0.0 3.2 0.00 0.00 0.00 51 1020.7
20260902122305 27 253 1.6 11.3 0.00 0.00 0.00 49 1020.7
20260902121803 26 130 0.0 0.0 0.00 0.00 0.00 50 1020.7
20260902121303 26 28 1.6 4.8 0.00 0.00 0.00 50 1020.7
20260902120304 25 38 1.6 4.8 0.00 0.00 0.00 55 1020.7
20260902115803 25 39 0.0 3.2 0.00 0.00 0.00 56 1020.7
20260902114804 25 34 3.2 8.0 0.00 0.00 0.00 54 1020.6
20260902114304 26 283 0.0 3.2 0.00 0.00 0.00 52 1020.6
20260902113804 26 275 0.0 0.0 0.00 0.00 0.00 52 1020.6